RH
13 14 20 26 30 30 29 28 27 24 21 21 19 20 20 18 18 18 19 19 20 21 21 21 19 20 20 17 22 32 35 42 55 62 62 33 4 17 30 27 23 20 20 14 19 26 20 25 31 29 32 35 40 42 38 38 52 70 81 90 90 81 75 67 62 65 70 73 81 87 83 82 80 81 82 81 84 71 58 56 47 45 44 44 49 45 42 43
13 12 16 22 29 30 28 28 27 24 21 20 21 22 22 21 21 20 19 16 17 17 18 20 17 19 20 18 26 34 41 57 69 65 40 14 16 27 25 27 27 21 21 18 17 22 23 25 30 30 32 37 37 39 37 38 53 67 72 83 83 71 63 61 65 63 62 71 78 82 83 84 80 78 76 76 76 68 63 57 50 49 45 45 47 43 43 42
12 12 14 18 26 29 28 27 26 24 21 21 22 23 24 23 23 22 19 15 15 13 15 16 14 19 19 20 29 37 55 71 67 54 27 10 23 32 29 27 24 23 22 17 16 20 25 26 29 31 33 38 37 36 36 38 51 57 58 72 75 65 60 58 65 70 65 66 76 82 82 83 83 79 76 73 67 65 65 58 54 54 51 48 45 42 41 40
12 12 13 15 22 28 28 27 25 23 21 21 22 23 24 23 25 23 17 14 13 13 12 12 14 18 18 23 31 41 66 73 52 40 29 20 23 26 30 27 21 23 20 16 15 18 24 25 28 30 33 39 37 34 34 32 37 45 51 57 60 63 65 57 59 67 62 67 81 84 82 83 82 79 78 73 67 69 65 55 52 53 52 48 44 43 40 40
11 12 13 15 19 25 29 27 25 23 20 21 21 23 23 23 26 23 17 15 13 12 11 12 17 18 20 28 34 50 70 58 37 32 28 25 24 25 29 28 25 21 17 16 15 18 21 22 27 30 35 39 37 33 32 29 25 35 43 42 45 56 63 56 52 57 58 71 84 84 85 84 80 80 78 75 77 80 70 57 51 47 47 46 43 42 41 40
11 13 13 15 17 21 27 27 25 23 21 20 21 22 21 23 26 22 17 17 17 16 17 19 20 22 24 28 38 59 66 41 27 27 22 19 20 23 25 24 26 20 15 17 16 18 19 20 26 33 38 37 36 33 29 26 24 31 36 34 36 46 57 49 43 48 50 68 84 84 84 81 82 85 80 79 84 84 75 63 54 46 43 44 41 42 42 40
12 15 14 15 17 18 23 26 25 23 22 20 20 22 21 24 26 21 17 19 25 26 27 29 26 28 28 33 51 64 61 40 25 21 17 17 16 16 19 20 24 22 19 19 17 16 18 23 27 32 36 36 34 30 26 24 22 28 29 27 30 40 51 43 37 40 45 66 82 81 78 79 84 84 77 78 78 76 75 66 58 49 40 43 43 42 42 41
15 19 18 15 17 17 19 24 24 23 22 21 20 21 21 24 25 20 18 23 34 35 34 33 32 34 29 38 55 54 50 40 24 18 18 22 19 14 18 21 22 25 25 22 17 15 19 25 27 30 34 34 31 27 24 22 21 24 23 21 26 40 47 40 37 37 47 68 76 76 78 78 80 80 77 78 71 63 67 65 59 52 40 42 43 41 44 43
20 25 24 17 15 15 16 19 23 22 21 21 20 20 20 23 24 21 19 26 36 37 33 31 33 35 32 41 47 38 31 23 18 20 20 28 28 19 18 21 23 26 28 24 17 16 20 26 27 28 31 30 28 25 21 21 21 20 19 19 24 40 40 33 39 39 50 66 65 73 82 79 74 75 79 79 71 60 60 60 54 49 42 42 42 41 44 44
26 32 33 25 15 12 12 14 19 20 20 20 20 20 19 20 24 24 22 27 35 37 33 33 33 31 34 45 47 37 22 12 16 21 21 32 38 31 23 24 28 27 25 22 17 18 20 25 25 23 26 26 24 23 19 18 19 14 15 15 18 35 34 31 41 43 55 65 60 69 82 80 72 75 84 80 68 60 61 57 45 44 46 44 42 42 44 45
34 38 39 34 24 16 11 11 14 18 18 19 19 19 18 19 23 26 25 26 31 35 37 39 36 33 38 44 46 37 20 12 15 15 17 27 37 38 33 31 32 27 22 19 17 19 20 22 22 20 23 23 21 21 17 14 14 11 12 12 12 22 29 35 42 43 56 64 58 67 81 80 76 80 82 73 60 56 59 54 43 44 47 44 43 44 47 47
40 43 42 40 35 25 16 11 11 15 17 17 17 18 18 20 22 26 25 24 28 35 41 43 37 40 47 47 44 31 16 12 12 11 13 18 26 31 34 35 30 23 20 16 15 18 19 19 20 22 22 21 22 19 15 11 10 11 11 12 12 13 23 37 44 43 51 60 55 61 80 83 81 79 69 63 57 54 56 50 44 46 45 45 45 46 50 51
45 47 44 41 38 33 24 15 10 12 16 17 16 16 18 20 22 24 25 24 28 34 45 45 38 49 60 51 38 22 14 11 9 11 10 14 22 21 26 31 25 21 18 14 14 15 15 16 18 21 19 18 22 18 13 11 9 10 9 12 15 14 19 25 35 43 46 59 53 50 78 87 78 69 56 56 56 53 56 50 46 46 45 45 46 48 52 56
48 47 44 41 37 34 28 19 12 10 14 17 16 16 18 20 21 23 24 23 25 32 44 47 45 58 66 51 29 14 12 11 9 11 8 12 20 17 19 24 21 18 16 14 12 12 13 14 16 19 19 18 20 16 15 15 12 10 10 11 14 18 19 12 21 41 50 60 47 42 75 82 68 62 53 54 53 52 58 52 47 47 46 46 46 49 52 55
49 46 43 42 36 32 28 22 14 9 12 15 15 16 17 20 21 22 24 22 23 29 40 51 55 61 63 49 29 13 11 11 10 12 9 10 15 16 17 19 20 17 15 15 14 15 17 16 18 21 21 18 18 19 19 18 15 12 13 16 15 17 19 9 14 34 53 61 42 39 70 73 62 60 55 54 49 49 55 51 48 47 46 46 46 49 49 50
49 45 43 41 35 31 27 22 14 9 12 15 16 17 18 20 21 23 26 25 25 27 44 61 62 63 58 39 21 13 12 12 10 9 8 7 8 12 15 18 21 20 17 17 17 20 21 19 19 19 19 19 18 20 21 21 19 14 15 18 16 15 16 12 11 18 39 59 45 39 63 70 64 60 58 57 50 49 53 50 49 49 49 46 46 48 47 48
50 46 43 40 35 30 27 22 14 10 13 15 16 18 19 21 23 25 26 27 25 30 50 56 49 56 52 31 20 14 10 8 7 7 7 7 7 8 13 17 19 21 21 19 20 21 22 22 21 18 18 19 19 20 24 28 25 18 15 16 14 14 14 14 13 9 22 45 40 36 52 62 61 57 58 57 50 51 52 49 49 49 50 46 44 47 46 47
53 48 42 40 35 30 27 21 13 11 13 15 18 19 20 22 26 28 28 32 35 43 57 52 48 55 43 29 24 13 7 7 6 7 7 7 8 7 10 16 19 20 22 22 22 23 23 23 22 22 21 20 20 21 27 28 22 18 16 15 14 13 13 13 13 9 17 34 33 35 50 56 54 52 54 52 47 49 49 48 48 48 51 48 45 47 45 46
53 48 42 39 34 31 27 21 15 13 15 17 18 20 22 27 34 34 33 42 50 55 54 48 54 51 25 15 14 6 6 8 6 7 8 7 8 8 9 16 19 18 23 26 26 24 24 25 25 27 25 22 21 21 23 21 16 15 12 12 12 11 12 11 11 8 15 32 35 37 50 54 53 51 51 51 45 48 50 49 50 52 53 52 49 48 46 46
52 48 42 38 34 31 26 21 16 15 18 18 20 24 24 25 31 32 28 32 37 38 33 28 36 32 13 7 6 6 7 6 7 7 7 8 8 8 8 15 20 20 24 27 27 24 23 29 31 28 24 21 19 18 19 17 15 14 12 10 10 9 10 9 10 8 13 30 33 36 48 52 53 53 50 50 48 49 53 53 54 55 57 57 56 54 51 46
51 47 42 37 34 30 25 22 18 17 20 18 23 31 24 18 22 23 20 20 17 16 17 14 15 13 8 6 5 6 6 5 7 7 7 9 7 10 13 17 23 27 26 23 23 21 22 30 30 23 20 18 17 17 16 16 15 14 14 12 11 11 9 6 8 8 13 26 29 35 50 51 49 52 49 48 49 51 53 54 55 56 60 64 61 58 57 54
51 47 42 38 34 29 24 22 19 18 19 20 30 34 22 15 19 18 18 21 17 12 13 10 7 6 5 5 5 5 6 7 7 7 9 8 8 13 17 19 24 27 25 22 23 25 27 29 24 19 19 17 17 16 14 14 14 13 13 12 13 12 9 7 7 7 9 18 25 32 48 53 48 49 48 46 47 49 51 52 53 57 64 68 64 60 60 62
49 45 40 38 34 28 24 22 20 20 20 24 33 29 17 16 17 16 18 22 20 15 13 10 6 6 5 5 5 5 6 6 6 9 9 9 11 14 18 20 21 22 21 23 25 27 30 26 19 17 17 17 16 14 13 12 12 12 12 13 14 11 9 9 7 7 7 10 19 26 40 50 47 48 49 45 43 43 47 51 51 58 65 65 62 61 60 62
45 42 38 37 33 27 24 22 20 22 22 24 26 21 15 17 18 18 20 22 22 18 13 11 7 6 7 5 5 5 6 6 6 10 10 9 12 13 17 18 17 19 18 19 21 23 24 19 16 16 15 15 15 13 12 11 12 12 11 12 12 10 9 8 6 7 6 5 12 24 41 51 47 49 51 46 43 41 44 50 54 61 63 61 61 60 59 59
42 40 35 34 35 29 24 24 24 24 24 23 20 18 16 17 20 19 21 26 27 20 13 10 7 7 7 5 6 5 5 6 5 8 8 7 10 12 14 15 17 20 17 16 18 19 19 14 12 15 14 14 14 13 12 11 13 12 10 10 10 10 8 8 6 6 9 10 12 23 43 54 49 48 50 47 45 43 45 50 56 64 65 61 61 61 58 58
41 37 32 33 36 31 28 28 29 30 27 22 18 17 17 19 20 18 25 34 28 19 13 9 8 7 7 6 5 5 7 7 5 6 7 6 7 9 12 13 16 21 18 15 16 16 15 12 12 12 13 13 13 14 12 10 14 13 11 9 8 9 8 8 7 7 11 13 11 11 22 45 56 50 46 47 46 45 50 55 58 64 67 62 60 62 60 59
43 37 33 32 32 39 43 36 35 36 31 24 20 19 19 19 19 19 36 46 30 16 11 8 8 7 7 7 4 6 10 10 7 6 7 7 6 8 13 14 14 17 15 15 20 18 13 12 13 12 12 13 14 15 12 10 14 15 11 9 9 9 8 8 7 8 10 9 10 7 7 33 56 50 42 46 47 47 52 57 59 64 68 65 61 63 61 58
43 38 36 34 29 38 47 40 40 41 33 27 23 22 21 20 20 21 41 50 27 12 10 7 8 7 6 6 5 7 9 9 9 8 7 7 8 8 12 12 11 12 10 13 22 18 12 12 13 12 12 13 13 13 11 10 12 13 10 9 10 9 8 8 7 8 8 7 13 13 5 20 42 44 41 47 51 50 49 51 57 64 66 66 64 62 59 55
42 38 37 37 29 30 41 45 45 39 31 28 26 24 22 21 22 25 43 48 22 9 11 8 9 8 6 7 6 6 6 6 8 9 7 7 8 8 10 10 8 10 9 10 15 13 11 12 11 11 12 12 11 10 9 10 11 11 10 10 9 9 9 8 9 11 11 11 15 13 7 12 29 39 45 51 53 52 49 45 51 61 64 63 63 60 56 54
42 37 37 42 36 35 45 48 41 32 28 28 27 24 22 23 28 39 52 42 17 9 11 9 9 8 7 8 8 7 6 6 6 7 7 7 8 8 7 7 7 10 11 10 12 11 9 10 11 12 11 10 9 9 8 9 9 9 9 11 10 11 12 11 15 19 19 21 18 11 6 8 20 33 43 49 48 45 46 45 48 57 61 61 59 57 54 53
42 35 37 44 43 45 49 42 30 28 29 28 25 22 24 28 34 48 49 25 10 12 11 9 10 9 8 9 8 8 7 7 6 6 7 6 8 9 8 10 9 10 12 11 11 10 8 10 10 10 10 10 9 9 9 8 8 9 9 11 13 15 15 15 19 21 25 30 22 9 5 6 14 26 33 38 39 37 40 42 49 57 58 57 55 52 50 50
42 35 35 38 40 42 42 33 26 29 31 26 24 24 30 39 43 45 34 14 12 16 10 10 10 8 8 7 8 9 8 9 7 6 8 7 8 10 10 13 11 13 17 14 10 9 7 8 8 8 9 10 11 12 11 9 8 9 11 14 19 21 19 20 23 21 24 29 20 9 7 6 11 16 17 20 27 34 35 36 47 55 53 53 52 48 47 47
40 34 33 35 35 31 30 29 29 33 31 24 25 27 34 49 49 35 21 14 15 13 9 11 9 8 9 8 8 9 8 9 8 7 8 7 9 9 9 10 9 14 19 16 14 13 11 7 5 7 9 9 12 14 13 11 10 11 13 17 22 23 22 25 26 23 25 26 16 9 10 9 9 11 9 8 13 26 34 33 42 50 49 50 49 44 44 45
37 33 35 38 36 30 29 31 31 34 30 23 26 32 41 52 42 23 18 17 13 11 10 11 10 10 11 10 10 9 9 9 7 8 9 8 9 9 12 14 12 14 17 17 17 17 18 16 8 6 9 10 12 13 13 12 11 12 11 14 19 20 20 24 26 26 27 25 16 11 13 12 12 12 9 6 5 16 31 33 35 45 46 45 46 43 42 42
35 36 40 43 43 36 33 32 31 33 30 24 29 39 47 48 33 20 21 18 13 12 11 10 10 10 11 10 9 8 11 12 8 8 10 9 8 11 17 20 16 16 19 22 23 18 20 20 11 7 9 9 10 11 11 11 13 13 9 11 16 15 16 21 22 21 22 23 20 16 15 13 11 11 7 5 4 7 22 32 33 40 45 44 46 44 41 39
37 40 42 46 44 33 29 30 30 30 26 24 35 46 43 32 23 20 20 16 13 13 12 10 10 11 12 11 10 10 11 12 10 9 10 8 8 14 20 20 16 16 18 24 24 20 21 21 12 10 11 8 10 10 9 12 16 15 12 12 12 9 11 18 21 18 17 23 24 18 17 13 9 11 7 5 7 3 11 28 33 37 44 47 47 44 40 39
46 50 50 47 36 21 21 24 22 23 23 27 43 49 36 21 16 17 15 14 13 12 11 13 13 14 14 12 13 12 11 12 10 10 10 8 13 19 19 17 16 15 15 19 21 19 20 21 13 10 12 9 9 10 8 10 12 14 15 12 10 9 10 14 21 23 23 26 22 16 19 17 13 15 10 5 9 3 6 25 33 35 44 49 47 44 41 40
63 65 57 44 27 17 18 19 16 19 25 34 43 40 25 16 15 14 12 12 12 12 12 14 15 15 13 15 15 11 10 13 12 12 11 11 20 24 18 17 17 14 13 16 20 18 17 22 17 10 12 10 7 11 12 10 9 12 13 10 11 17 18 18 20 24 27 28 23 18 19 17 16 18 11 6 9 5 8 26 36 38 46 48 45 43 42 41
71 67 51 32 20 18 19 19 18 21 30 39 41 32 20 15 15 12 11 11 11 13 14 14 14 14 13 14 15 12 12 14 13 14 14 14 25 26 18 18 18 15 14 14 17 17 15 22 22 11 10 10 9 13 15 13 11 10 11 11 12 16 19 21 19 19 25 28 26 24 21 18 19 17 9 7 8 6 12 31 40 41 45 44 42 43 42 41
61 57 41 22 18 20 19 19 24 29 36 37 32 25 19 16 14 12 11 11 12 14 14 14 14 15 16 15 16 15 14 15 15 16 14 14 23 24 18 19 19 15 14 12 14 18 17 21 24 18 13 12 13 14 14 15 14 13 15 16 14 14 15 18 17 15 19 26 27 28 27 24 17 12 10 10 9 6 12 30 42 41 40 40 39 40 41 40
58 51 33 16 17 19 18 23 28 30 31 27 22 19 18 18 15 13 12 11 12 13 11 14 15 16 20 20 19 19 18 19 18 17 17 18 23 25 19 18 19 17 16 15 17 24 27 28 30 29 24 19 16 12 13 14 13 13 15 16 16 17 16 20 24 19 15 19 23 25 28 25 15 11 13 12 10 7 8 21 37 39 35 36 37 37 37 37
62 46 22 14 19 18 19 27 25 23 23 20 18 16 17 19 16 15 15 13 15 15 12 14 16 16 20 21 20 22 23 23 20 19 19 20 22 24 20 17 19 17 17 23 25 27 31 31 33 33 27 21 18 14 13 13 10 10 13 12 13 14 16 21 29 27 19 17 17 18 23 21 13 12 14 13 12 8 5 13 29 37 35 34 34 34 35 35
58 46 20 13 18 15 21 29 24 21 21 17 15 15 16 18 17 17 17 17 18 17 14 16 17 17 21 22 22 24 25 23 22 21 21 20 20 23 22 20 20 17 19 30 33 28 28 32 39 40 30 21 17 12 9 9 10 14 14 12 13 15 15 16 20 24 24 20 17 19 23 18 12 13 18 20 18 11 6 8 15 25 30 32 34 33 33 35
62 57 31 15 14 14 20 26 25 24 20 15 16 18 18 17 17 17 18 19 18 16 17 20 19 19 21 21 21 23 26 29 28 24 23 23 22 24 25 23 22 21 22 29 31 28 31 37 46 54 48 35 23 14 17 23 23 22 21 19 19 19 19 19 21 27 30 28 27 28 27 20 14 19 24 24 23 21 20 17 11 13 17 22 31 34 32 33
63 56 34 17 13 15 19 20 22 24 21 18 18 18 20 19 15 16 17 18 17 18 23 22 18 21 22 22 23 23 24 29 31 28 26 27 28 28 27 24 24 23 24 28 27 26 33 38 43 55 62 55 42 36 42 44 34 26 23 21 20 20 21 25 32 39 42 41 39 35 32 25 19 23 28 27 26 30 33 29 24 21 19 18 26 32 31 32
58 44 32 25 19 17 20 17 18 25 25 26 25 19 19 20 18 16 16 18 18 20 25 24 20 24 26 25 28 27 24 25 29 32 34 37 37 32 28 26 24 24 27 30 27 25 31 34 35 46 55 52 47 43 40 34 28 25 22 19 19 20 20 24 34 42 43 44 45 41 37 34 26 26 32 30 28 34 36 33 31 31 27 23 26 31 31 31
52 37 30 37 33 24 23 19 19 25 25 27 32 26 19 19 19 18 17 19 21 23 27 27 26 29 31 30 32 33 31 30 31 36 41 42 38 32 29 28 26 26 28 29 26 26 33 35 31 34 36 33 31 29 24 22 22 22 19 17 19 19 20 25 31 35 35 42 50 46 39 38 30 25 31 34 34 38 39 36 34 33 30 27 29 34 35 32
43 35 25 33 37 30 29 25 21 25 24 25 30 25 21 22 21 20 18 18 23 28 32 34 32 32 32 31 36 41 42 40 39 42 44 44 41 38 36 33 29 27 27 27 25 26 35 36 28 25 26 22 20 19 19 19 19 18 18 18 17 17 19 22 24 24 27 36 44 39 36 36 27 19 28 39 40 40 39 38 36 34 31 29 31 37 41 41
44 44 35 34 33 27 27 24 20 25 28 30 32 27 25 25 22 21 17 18 25 30 33 38 38 35 32 31 39 48 47 46 48 46 43 43 44 45 45 41 34 29 26 28 28 29 37 39 29 24 26 23 19 18 17 17 17 19 19 17 16 17 17 18 19 19 20 27 29 27 31 33 23 19 32 45 45 39 37 38 39 37 35 34 36 40 44 51
48 49 51 49 35 27 29 24 22 30 32 33 38 33 26 24 23 22 18 21 33 33 29 32 34 32 31 32 39 45 41 42 46 44 41 41 44 51 55 50 40 33 29 29 32 35 43 45 35 29 31 29 22 19 18 17 18 19 18 16 16 17 16 16 17 17 21 27 25 23 32 33 23 25 40 49 48 42 41 46 47 45 44 43 44 44 43 50
55 50 55 59 44 35 37 29 26 36 38 35 38 34 27 24 22 22 21 23 31 31 24 23 27 28 29 32 38 39 35 35 37 33 31 32 34 41 48 43 34 32 32 31 36 43 49 50 42 40 44 39 25 21 20 17 17 18 17 17 15 15 17 17 16 19 22 25 25 27 35 34 25 29 44 49 50 51 50 53 58 56 52 50 49 50 48 47
65 61 58 63 55 39 35 32 30 37 40 37 35 31 28 27 22 25 32 29 25 25 22 20 26 32 36 39 40 36 31 29 28 24 23 25 24 25 30 30 26 28 32 32 37 47 52 54 54 58 62 51 32 25 23 23 29 28 18 15 15 14 15 14 14 18 17 19 26 28 30 34 33 38 48 51 59 66 57 52 62 65 60 55 51 51 52 50
Wind_Speed
29 30 31 31 31 29 26 23 21 21 20 19 18 19 19 20 21 21 21 20 19 19 17 16 16 15 14 15 14 12 14 13 10 8 11 12 14 15 6 5 10 15 13 9 11 10 10 12 13 16 12 9 7 5 9 7 5 3 2 2 3 3 3 1 1 1 1 1 5 5 3 2 5 6 2 6 5 4 6 5 6 10 13 17 20 26 30 31
28 29 30 31 31 29 27 24 22 21 20 19 19 20 21 22 23 23 22 21 20 20 17 16 16 14 13 14 12 11 12 12 9 14 18 9 9 14 11 6 7 12 15 12 14 13 10 10 11 13 9 5 6 7 9 6 7 4 3 3 3 3 2 2 2 2 1 1 6 6 4 1 2 5 5 7 10 6 7 6 6 11 15 20 24 27 29 30
29 29 30 31 31 30 27 25 23 22 21 20 19 21 23 24 25 25 23 21 20 19 17 16 15 14 13 11 9 9 10 9 8 12 12 10 13 13 11 10 10 10 14 17 16 16 13 12 14 12 8 6 6 8 9 7 7 5 4 3 5 5 2 3 4 3 3 2 6 6 5 2 4 4 2 4 11 8 6 7 8 13 17 19 21 24 26 26
29 29 30 31 31 30 28 25 23 22 22 20 20 22 24 25 27 26 23 21 19 18 16 15 14 12 12 9 7 7 6 6 4 4 2 8 13 13 13 14 13 12 14 19 16 16 17 14 15 12 8 7 7 8 8 6 6 5 6 6 6 6 3 4 7 6 5 6 9 7 4 3 2 4 2 3 7 6 5 7 10 16 20 19 19 21 25 22
29 29 30 31 31 30 29 26 24 23 22 21 21 22 24 26 27 25 21 19 18 15 14 13 13 11 9 6 5 5 3 2 2 4 2 4 7 11 15 16 15 15 15 18 15 14 16 13 10 12 7 6 7 7 7 8 7 4 8 11 7 6 4 6 10 9 9 12 11 9 4 3 2 1 1 1 2 2 3 5 10 16 20 19 18 19 20 19
29 30 30 31 31 31 30 27 24 23 22 22 22 23 25 27 28 23 18 18 16 13 13 12 11 9 6 4 4 2 1 2 2 5 2 2 5 8 12 16 16 15 15 16 14 11 11 11 9 9 6 5 7 7 8 11 10 6 8 12 10 9 7 7 9 9 10 13 12 10 6 5 5 2 1 1 2 2 3 1 7 13 20 20 18 17 16 16
29 30 31 31 31 31 31 28 25 23 23 22 22 23 25 27 27 21 17 17 14 12 11 10 9 5 4 4 3 1 2 6 5 3 2 1 5 7 10 14 16 15 15 15 13 10 9 10 10 8 7 6 7 9 10 11 12 9 7 8 10 11 9 8 7 8 10 12 11 10 7 6 6 4 2 2 3 3 4 2 5 10 21 23 18 17 15 15
28 30 31 32 32 32 31 30 27 24 24 23 23 24 25 27 25 19 17 15 11 10 9 9 8 4 4 4 2 2 4 8 6 5 3 0 4 7 9 14 16 16 15 15 14 11 8 9 11 8 6 7 8 10 11 11 9 9 8 7 7 10 8 8 7 9 13 12 12 12 8 7 6 4 3 4 5 6 7 5 8 11 18 21 19 18 15 14
27 29 31 32 32 32 32 31 28 25 25 24 24 24 25 26 23 19 17 13 9 9 10 11 9 5 5 3 3 3 2 3 5 7 3 1 4 5 11 13 16 18 15 16 16 13 9 8 11 9 7 8 9 9 10 9 6 7 9 8 7 10 8 8 8 10 13 10 11 14 9 7 7 4 2 3 6 8 8 8 13 15 15 16 16 16 15 14
28 29 31 31 32 32 32 31 29 27 25 25 25 25 25 25 22 20 17 12 9 10 13 13 10 6 5 3 3 2 2 2 2 4 2 5 5 4 11 12 15 18 14 14 16 14 11 10 10 7 7 8 7 8 9 7 5 7 9 8 6 11 12 10 11 12 14 9 11 15 11 9 8 3 1 5 8 9 8 9 15 17 15 15 14 14 14 14
29 30 31 31 32 32 32 31 30 28 26 26 26 25 25 23 21 19 16 12 10 12 14 12 8 5 5 4 3 2 4 6 3 3 1 5 7 6 9 11 15 18 14 12 14 16 16 16 13 6 6 5 6 8 8 9 8 10 10 9 8 5 10 13 12 11 12 9 12 15 12 8 6 2 3 7 9 11 10 10 15 15 15 15 15 13 11 12
30 31 32 32 32 33 32 31 30 28 27 27 26 26 25 22 20 19 16 13 10 11 12 9 4 2 4 4 6 7 4 7 5 4 4 4 9 9 8 11 15 18 16 11 13 19 20 19 17 9 5 4 5 6 5 8 8 8 8 7 8 6 4 13 14 13 12 10 14 16 10 4 5 5 7 9 9 11 10 10 13 13 13 14 13 12 9 11
31 32 33 32 32 32 32 31 30 29 28 27 27 26 24 21 19 18 17 14 10 10 10 8 3 2 3 3 7 7 5 8 6 3 5 6 9 9 8 13 16 16 17 14 14 19 22 21 17 11 8 6 5 4 6 8 6 6 7 4 4 6 3 8 12 15 13 13 18 12 5 4 7 9 11 11 11 13 10 9 11 11 11 11 12 10 8 9
32 33 33 33 33 32 32 31 30 30 28 28 27 25 23 20 19 18 17 14 10 9 8 8 4 2 3 5 7 5 5 8 6 5 6 7 6 8 9 13 16 15 17 18 18 19 21 21 16 9 8 7 6 7 9 8 5 5 5 3 3 3 4 7 9 14 12 12 18 10 2 5 7 8 11 12 13 14 10 10 10 10 11 9 11 11 10 11
32 33 33 33 33 33 33 32 30 29 28 28 27 25 22 20 20 18 15 13 10 8 8 8 5 3 3 7 8 6 5 4 5 7 6 4 6 7 9 10 13 15 16 18 18 17 18 16 12 6 6 7 6 7 6 4 5 4 3 3 3 4 4 9 9 15 16 11 14 10 3 4 6 8 11 11 14 15 11 12 11 10 13 11 11 11 10 12
33 33 33 33 34 33 33 31 29 29 28 28 27 24 21 20 20 17 14 13 11 8 5 5 6 7 3 5 4 5 6 3 2 4 5 5 9 8 10 11 9 12 15 16 15 15 16 11 5 4 5 5 5 4 4 4 4 3 3 3 4 5 6 7 10 14 21 17 14 10 6 3 5 11 13 12 15 15 11 13 14 11 12 12 11 11 11 11
34 33 33 34 33 33 33 30 29 28 28 28 26 24 22 21 17 14 13 11 10 8 6 6 6 5 5 7 6 3 5 1 3 4 5 6 8 11 8 11 9 9 11 12 14 11 9 6 2 3 4 4 4 3 3 4 4 3 3 4 6 7 6 6 8 11 19 22 16 12 9 7 9 13 16 16 17 16 11 12 16 12 10 11 11 11 11 12
34 33 33 33 33 33 32 30 27 27 29 27 25 26 23 18 11 8 8 5 4 5 7 9 7 2 4 8 8 3 3 2 4 5 4 4 7 10 10 4 7 8 7 7 10 8 4 2 2 3 3 4 4 4 5 5 4 5 6 5 6 8 8 8 7 8 14 20 16 13 11 11 14 15 17 17 17 15 11 11 13 11 9 11 11 11 11 12
34 32 32 33 33 33 31 29 26 26 29 26 24 24 17 10 5 2 3 2 2 2 3 4 5 3 3 4 6 3 2 2 4 5 6 6 6 7 9 6 5 7 6 4 6 7 4 2 3 4 4 6 7 7 7 6 6 9 9 5 5 6 7 10 10 10 11 17 14 13 11 14 17 16 16 15 14 12 10 11 10 9 9 10 10 9 11 13
34 32 32 32 33 33 30 28 25 25 26 26 27 21 9 6 4 1 1 4 5 6 9 7 7 7 6 4 5 6 7 6 6 8 9 7 7 6 6 6 5 6 5 4 6 7 5 4 5 5 6 8 9 10 10 10 11 12 9 7 7 6 6 9 12 11 10 15 12 14 15 16 18 17 17 16 14 12 11 11 10 9 9 9 10 9 10 13
33 32 32 32 33 32 30 28 25 22 22 24 24 13 4 6 3 2 6 5 8 9 12 13 10 7 6 7 8 7 5 6 8 7 5 6 7 5 3 5 5 4 5 6 6 6 6 5 6 8 9 9 9 10 12 12 13 13 9 7 7 6 8 8 10 9 11 12 11 17 17 16 19 18 17 17 16 15 14 14 12 12 11 8 10 10 8 9
33 32 32 33 33 31 29 27 23 20 20 18 13 5 2 7 4 6 7 5 10 12 12 13 10 6 7 8 6 5 4 5 7 6 6 5 6 4 4 5 5 4 6 7 5 4 6 6 7 9 9 10 11 10 11 12 12 10 7 6 6 6 8 9 9 7 8 8 10 19 16 14 18 18 17 17 16 14 15 16 13 13 13 9 11 11 9 7
32 32 33 32 33 31 27 25 21 18 18 14 8 5 5 9 8 10 7 5 9 11 10 9 7 6 6 5 1 2 5 5 5 4 5 3 4 4 5 5 5 6 6 7 6 4 4 6 10 12 10 11 12 11 11 10 8 7 6 4 5 6 7 6 7 8 3 2 8 18 14 11 15 15 15 16 14 12 14 16 13 12 14 13 13 12 12 11
32 33 32 32 33 29 26 24 17 13 17 18 14 7 9 10 10 11 6 4 5 9 10 9 7 5 2 0 1 1 3 5 3 2 4 3 2 2 4 5 6 6 5 8 10 8 7 7 12 14 12 12 11 11 10 8 5 6 7 6 5 8 9 7 7 9 7 6 4 14 10 6 12 14 14 13 12 12 14 16 13 12 13 13 13 12 12 13
32 32 31 32 32 29 27 19 11 16 21 18 11 7 11 10 10 10 5 2 3 5 8 7 4 2 2 1 2 1 3 5 3 3 4 2 2 2 1 3 4 4 6 9 10 9 9 10 10 11 13 12 11 9 9 7 5 5 7 8 8 9 12 11 10 8 6 7 1 10 6 4 11 15 14 12 13 14 14 16 16 13 13 12 12 13 12 12
31 30 30 30 30 30 23 9 11 24 19 10 12 15 13 11 12 9 2 2 2 2 4 4 2 1 1 1 3 1 4 4 1 3 3 3 2 2 3 3 2 4 6 6 6 5 6 10 11 11 11 12 11 8 8 8 5 4 6 8 10 9 11 12 11 6 2 5 4 1 3 5 9 12 14 15 16 16 15 17 17 15 13 13 13 13 12 12
31 30 30 28 28 29 17 8 18 23 10 8 17 18 14 12 12 8 1 2 1 4 4 2 2 2 2 2 2 1 1 3 2 2 3 3 2 2 2 4 3 4 5 3 2 2 5 9 10 11 10 8 8 7 8 9 5 3 6 8 8 8 10 11 9 5 3 5 7 6 4 3 7 10 14 17 15 15 15 17 17 15 15 15 15 14 14 13
31 30 30 28 26 24 15 14 19 14 8 13 18 16 15 15 13 6 2 1 1 3 2 1 2 2 2 2 3 3 1 2 3 2 8 7 3 1 2 6 6 6 7 4 3 4 7 8 7 10 9 6 5 6 8 10 7 5 6 9 9 6 7 7 6 5 3 4 6 6 4 1 4 9 14 16 14 13 15 17 18 17 17 16 16 16 16 15
31 29 29 29 26 18 11 12 13 9 12 17 17 17 16 15 11 2 1 2 2 2 0 1 2 2 3 2 4 5 4 3 3 2 5 7 5 3 3 4 6 8 9 6 5 7 8 5 3 6 7 5 6 7 6 8 6 6 8 9 8 7 7 3 1 2 2 3 6 6 3 3 3 7 12 13 12 14 15 16 18 18 18 17 17 17 16 15
31 28 27 29 26 16 12 12 14 10 14 15 16 19 17 11 5 2 2 2 4 3 1 2 1 3 5 5 4 5 4 3 2 3 3 3 5 4 3 4 5 6 7 6 7 8 9 10 7 5 6 6 7 7 7 7 5 3 7 7 6 6 5 2 2 3 3 2 7 7 4 3 4 3 10 12 14 17 16 14 15 16 17 17 16 17 16 15
31 27 24 26 24 16 11 10 10 9 13 15 16 17 12 4 1 1 2 1 3 1 2 3 1 3 5 4 2 5 4 3 0 2 2 1 5 5 3 3 3 3 4 5 6 7 9 10 6 5 7 6 5 5 6 8 7 5 3 2 1 4 4 2 2 3 2 3 7 7 6 5 5 3 7 14 18 20 17 16 17 18 19 18 16 17 17 16
30 25 21 20 18 14 9 7 7 10 12 15 15 10 5 0 2 3 2 1 2 2 1 2 2 2 1 3 1 3 3 0 1 0 1 2 2 3 4 4 3 1 3 3 3 5 7 8 5 6 9 6 4 4 3 5 6 3 1 3 1 2 2 1 0 0 2 4 6 7 7 5 5 6 7 10 14 17 17 17 20 22 22 19 18 18 17 15
29 22 16 11 11 13 11 8 9 8 11 15 10 4 2 1 2 1 2 4 1 2 3 3 2 5 4 4 2 3 3 1 2 1 2 3 3 3 4 4 2 2 1 2 3 3 4 7 7 7 5 2 2 3 2 2 2 1 0 3 2 1 2 2 2 2 3 5 7 9 7 4 4 6 9 11 10 16 18 17 19 23 23 21 20 19 17 17
26 17 12 8 10 14 13 10 7 7 12 12 5 3 3 2 2 7 8 7 4 3 6 4 2 3 3 4 1 3 1 1 2 2 4 3 4 3 2 5 8 6 2 3 4 3 3 5 6 5 2 2 5 5 4 4 3 4 3 4 4 3 3 2 3 4 4 4 8 11 8 4 4 5 8 12 12 11 19 20 18 19 20 19 19 19 18 18
23 13 11 12 15 15 12 10 6 9 12 7 2 3 2 1 3 7 6 6 6 7 8 4 5 3 3 4 2 5 4 2 3 3 2 2 3 2 3 7 12 10 5 4 3 4 6 4 3 6 8 4 6 7 7 6 3 4 5 5 5 4 2 2 4 4 3 3 3 6 5 4 7 8 10 12 13 11 16 20 18 17 17 16 16 18 17 17
22 14 10 14 16 10 5 6 6 9 9 4 2 3 1 2 5 5 4 7 7 7 8 6 3 2 3 3 5 8 5 1 2 2 1 2 3 6 7 6 10 11 8 3 2 4 5 6 8 12 13 8 4 5 8 7 3 2 4 5 5 3 2 2 4 6 4 3 2 4 4 3 5 6 9 11 13 15 12 18 21 19 18 17 15 17 17 16
24 17 10 13 12 5 2 1 4 6 5 2 3 3 1 3 7 7 6 8 8 7 7 4 3 3 4 2 5 5 3 0 1 1 2 1 3 9 9 8 9 11 9 5 1 4 5 8 11 10 11 12 13 13 8 9 6 4 3 3 3 3 3 1 1 4 3 2 2 4 5 4 5 5 8 9 11 14 12 17 24 20 19 20 17 17 18 18
21 14 10 11 8 6 4 1 2 4 3 2 3 3 3 6 8 8 7 8 8 6 5 3 3 4 5 5 4 4 3 1 2 2 3 2 3 9 10 8 10 12 11 7 3 4 5 6 11 6 8 14 15 13 8 8 10 7 6 4 1 2 3 2 1 1 2 2 2 5 8 4 4 5 9 11 11 12 10 16 23 20 19 19 17 18 19 17
11 6 4 4 5 5 4 1 3 4 3 3 3 2 5 8 8 8 8 8 7 6 5 6 5 5 6 6 5 7 6 5 5 3 4 4 3 7 12 8 9 13 12 8 3 3 3 2 8 8 9 14 11 6 4 1 6 8 8 6 1 2 1 2 2 2 2 2 2 4 6 4 4 4 9 12 12 10 8 16 20 20 21 18 16 16 16 16
5 3 2 5 7 4 2 1 3 3 2 2 2 4 6 7 7 10 9 9 7 5 5 7 7 6 7 8 7 8 7 7 8 4 3 7 5 7 14 11 9 12 12 8 4 3 3 2 4 10 11 10 7 3 5 9 5 4 5 5 3 1 1 2 3 2 3 2 2 2 4 5 6 4 5 8 11 10 7 14 18 18 21 20 17 17 16 15
4 2 1 6 6 1 1 3 3 3 2 2 5 6 6 6 8 10 10 10 7 5 5 8 7 6 7 8 8 8 7 6 8 5 3 8 8 6 10 11 10 11 9 7 5 5 4 1 3 8 8 6 9 11 12 13 10 7 4 4 5 3 2 2 3 4 3 3 3 2 4 6 5 2 4 4 6 11 8 12 18 19 20 20 18 19 19 18
3 2 3 6 4 1 3 4 2 1 2 4 6 6 6 6 8 10 11 11 9 6 6 7 8 8 8 8 8 9 7 5 6 7 5 8 9 6 8 11 11 11 8 6 7 8 5 3 3 6 7 8 15 19 16 13 11 9 6 5 5 4 3 3 3 4 3 3 5 3 3 7 6 4 8 12 7 10 11 10 17 20 19 20 20 20 20 19
2 4 2 5 6 8 4 2 2 2 3 2 5 8 8 7 7 9 10 11 9 7 6 8 9 8 9 9 9 9 9 5 6 9 6 5 8 10 13 15 13 11 7 5 7 9 7 3 2 5 7 9 15 17 14 9 7 7 6 5 4 6 7 4 3 2 2 3 3 5 3 8 7 5 9 15 16 4 6 6 12 17 16 18 20 20 19 18
4 4 2 5 8 7 2 3 4 3 3 2 6 9 9 8 8 8 9 9 7 7 6 8 9 8 8 8 6 8 8 4 6 9 7 5 6 12 16 18 15 10 6 4 5 6 4 3 3 4 5 7 10 10 8 7 9 7 7 10 10 11 13 8 4 4 3 6 8 1 5 7 6 8 11 15 19 15 11 7 1 5 6 13 19 19 18 19
4 3 2 5 9 8 5 4 5 5 5 5 6 8 8 8 8 8 9 9 7 7 7 7 8 8 8 7 6 7 7 2 2 6 7 7 6 9 14 16 13 11 10 10 9 5 2 3 3 2 2 4 5 4 3 6 9 7 9 14 14 14 15 9 5 4 3 7 11 3 3 7 8 11 13 15 18 18 18 18 14 11 10 2 14 21 19 17
3 1 3 4 6 7 5 5 7 6 7 6 3 5 7 7 7 8 8 7 6 9 9 7 8 7 6 7 7 6 6 4 3 5 6 7 6 6 11 13 10 9 11 13 10 4 1 2 3 3 4 6 7 7 8 9 9 10 13 17 14 13 13 6 2 2 2 4 6 3 5 10 12 11 11 12 15 16 16 18 18 16 18 15 1 16 21 17
2 2 3 2 3 5 4 6 7 6 7 6 3 5 8 7 6 5 6 5 6 8 7 5 8 7 5 7 6 5 7 7 6 6 6 7 6 7 11 12 8 8 9 9 7 4 1 3 6 7 9 10 12 14 15 13 12 12 16 17 14 12 11 7 3 4 5 4 3 7 12 11 11 12 9 9 13 13 14 16 16 15 16 17 14 8 12 15
2 2 3 2 1 3 4 5 6 7 8 7 4 6 8 8 7 5 4 4 6 8 5 3 7 8 7 7 5 4 6 5 4 4 4 4 4 6 8 8 8 8 7 6 6 4 2 4 6 8 11 13 13 15 15 13 12 12 15 17 15 13 11 8 7 7 8 5 3 9 14 10 10 12 8 8 9 10 12 13 14 15 16 17 20 20 14 8
3 2 6 6 3 3 5 5 5 7 9 7 5 7 8 7 8 5 3 3 4 6 4 3 6 7 7 6 3 1 3 3 3 3 3 3 3 3 4 4 5 6 6 4 5 4 2 4 7 8 11 13 14 14 14 14 13 13 15 16 14 12 12 11 9 8 10 9 7 9 12 10 9 10 6 6 6 7 10 12 14 16 18 18 19 20 18 16
3 2 4 6 4 4 4 4 3 5 8 7 4 6 7 6 7 6 4 5 4 4 3 3 2 2 4 5 3 2 3 4 4 3 4 5 3 2 1 1 2 3 4 3 3 3 2 4 8 8 8 10 12 12 12 12 13 14 15 15 15 13 12 10 9 7 8 9 8 8 10 8 6 7 6 6 7 10 13 15 15 15 17 19 20 20 18 18
10 9 8 4 2 3 3 2 5 5 6 5 3 4 5 4 6 7 6 6 3 1 3 4 2 1 4 5 5 4 5 5 6 6 6 7 5 2 1 3 4 3 3 2 1 1 1 2 7 7 6 7 9 10 11 11 13 15 15 14 14 14 10 8 8 6 6 9 9 7 7 6 5 6 6 8 12 15 17 16 14 14 16 18 18 18 18 17
15 13 12 6 2 2 2 4 6 4 3 2 1 2 3 5 6 8 5 5 6 4 6 8 6 5 4 5 5 6 6 7 7 6 5 6 7 5 4 6 8 6 4 2 2 2 2 1 2 3 4 7 10 11 11 10 9 10 9 9 11 12 11 9 9 9 9 8 6 5 4 5 10 10 10 12 14 15 15 15 13 12 14 17 17 17 17 17
Wind_Direction
5 5 4 4 4 4 3 2 359 357 355 353 351 349 345 342 339 335 330 323 320 317 319 324 325 325 322 324 326 325 325 317 308 265 241 250 223 205 218 228 209 199 197 202 203 207 192 198 211 207 215 223 217 233 227 202 139 142 138 188 234 252 241 195 231 117 151 196 116 146 188 103 159 200 231 137 157 187 143 132 132 130 134 135 144 148 142 145
3 3 2 2 3 2 2 0 358 355 353 351 350 347 344 342 339 335 329 322 317 314 316 319 320 321 318 323 326 326 327 313 287 259 249 234 186 200 219 219 202 197 198 205 209 215 204 192 205 204 206 223 210 214 228 193 140 166 194 194 230 237 214 166 184 131 159 177 120 131 133 76 251 201 208 154 147 159 139 136 135 132 132 135 146 150 147 153
1 1 1 0 1 1 0 358 356 353 351 350 348 346 344 342 340 336 329 323 317 313 314 314 316 316 317 321 325 330 328 312 278 261 256 206 186 201 222 222 208 203 204 204 205 215 217 198 197 201 205 221 218 209 214 184 154 183 191 220 234 209 241 224 184 162 181 142 108 111 111 118 303 310 286 147 141 151 145 138 134 132 135 143 150 151 154 159
359 359 359 359 359 360 359 357 354 351 349 348 346 344 343 341 341 336 330 327 321 316 313 313 314 312 320 322 326 339 316 300 270 240 239 182 193 202 217 226 219 217 211 207 209 223 233 217 196 199 211 216 224 221 218 202 182 181 184 228 229 172 223 221 169 167 169 117 100 97 86 144 251 322 337 148 150 152 149 145 145 142 143 150 152 153 159 161
357 356 357 357 358 358 357 355 352 350 347 345 343 343 341 341 341 336 334 333 329 322 315 312 313 315 322 322 337 349 313 322 128 153 107 155 184 198 215 227 229 227 215 211 220 240 254 255 219 202 213 225 224 224 227 220 210 203 201 219 218 158 178 194 169 171 148 113 109 116 124 182 160 346 343 145 195 169 134 140 150 148 145 154 156 155 161 158
355 354 354 355 356 356 355 353 351 348 345 343 340 341 341 341 340 336 335 336 334 328 323 319 319 324 327 333 347 341 282 352 108 149 119 135 178 201 219 225 227 221 209 210 225 248 255 266 253 208 202 234 234 234 231 219 215 227 213 216 213 178 176 188 170 167 150 127 130 140 162 188 134 133 264 277 278 308 339 124 159 151 145 152 154 157 167 156
353 353 352 352 354 354 353 351 349 347 344 341 338 339 341 341 340 337 335 337 337 334 336 337 337 345 348 351 346 233 233 282 273 152 111 172 208 220 214 211 212 201 197 205 216 234 236 248 253 216 195 223 238 245 246 234 222 223 227 230 206 178 182 187 160 154 147 129 132 138 146 160 140 149 201 220 249 278 290 223 172 159 149 153 159 165 171 154
354 352 350 349 350 351 352 350 348 345 343 340 336 337 339 341 341 335 333 335 336 341 348 348 351 0 350 352 316 251 236 248 220 133 71 114 206 217 193 190 200 193 195 207 210 220 230 246 246 220 200 217 234 239 248 253 240 228 234 239 187 163 186 179 146 138 127 115 126 126 125 155 160 152 160 204 222 216 225 191 171 172 159 159 164 167 166 155
355 353 350 348 346 348 349 347 346 343 341 339 335 334 336 340 340 334 331 330 328 333 335 331 330 331 331 322 283 283 253 235 167 135 75 141 178 191 181 184 196 191 197 212 215 222 223 243 240 218 216 225 235 241 249 253 249 244 238 241 192 159 180 170 145 138 119 113 133 122 124 167 168 144 134 245 234 208 216 194 172 169 163 163 164 163 164 158
354 353 350 347 344 344 345 345 344 341 338 336 334 333 333 337 338 333 328 322 316 319 322 317 307 304 306 273 259 277 286 320 159 145 99 169 174 173 185 191 194 187 197 212 215 225 225 245 245 216 232 245 247 256 264 259 267 275 265 272 232 174 176 166 152 143 116 121 147 126 130 158 163 180 215 234 221 198 207 194 168 161 162 166 165 165 166 159
352 352 349 347 344 342 342 343 341 339 336 332 331 331 332 336 336 333 327 316 307 315 323 318 304 283 275 263 249 249 291 323 313 272 305 174 184 201 200 197 194 188 197 211 213 224 229 247 258 238 225 244 262 268 276 276 288 295 294 305 287 209 170 156 153 149 121 140 158 124 114 135 150 233 224 203 202 188 193 183 164 159 163 167 169 168 162 158
351 350 348 346 344 341 339 340 339 337 333 328 327 329 331 333 334 332 327 315 304 314 328 330 324 252 266 270 240 233 271 321 325 271 262 217 200 212 220 205 198 193 198 213 215 225 237 250 261 262 239 231 249 260 287 281 282 288 291 297 295 301 171 158 159 159 139 147 154 124 101 128 181 223 209 199 194 182 183 175 165 161 163 168 169 164 154 161
350 349 347 345 343 340 338 336 336 335 331 326 323 325 328 329 329 328 321 312 300 309 329 331 321 241 267 260 243 238 256 280 296 285 260 248 209 197 217 208 198 199 205 217 218 222 237 250 261 271 268 266 257 282 313 296 280 264 265 254 261 298 254 184 169 161 149 150 159 144 108 175 210 219 194 183 178 173 178 179 172 163 163 168 162 162 156 161
348 347 345 343 341 339 337 334 334 334 329 323 319 321 324 324 324 321 313 305 294 298 320 324 317 262 260 262 266 265 266 263 251 243 239 245 218 178 206 211 193 196 210 224 230 229 233 241 254 270 272 274 287 310 317 307 297 261 253 253 217 235 253 238 195 161 153 162 165 148 110 194 218 214 174 166 173 170 175 185 182 164 162 168 161 162 159 166
347 346 344 342 340 338 336 333 332 332 327 321 319 319 319 319 319 314 304 297 292 295 314 316 277 228 273 274 266 247 246 253 223 222 200 223 251 187 190 213 196 191 206 225 240 251 251 241 238 253 271 276 286 297 306 304 299 283 249 256 226 195 228 253 224 169 152 167 175 145 112 200 210 203 175 167 175 174 181 182 178 168 164 169 164 163 165 174
346 344 343 341 339 338 336 333 332 331 326 320 318 318 315 315 313 303 292 287 290 290 306 306 228 210 280 289 257 224 233 240 198 225 193 210 264 242 188 191 207 203 205 222 236 255 271 266 235 233 258 265 265 264 289 295 277 275 240 236 238 210 210 237 241 195 157 157 186 164 130 172 183 189 181 178 181 180 189 177 170 177 171 167 164 167 173 174
345 343 342 340 339 337 335 333 332 329 324 319 319 319 316 314 307 291 283 279 286 281 257 268 248 212 248 281 299 263 225 218 27 303 250 222 252 271 234 181 191 212 209 223 229 238 264 273 237 222 233 243 250 219 238 257 246 262 234 229 250 238 227 217 238 222 165 156 177 163 135 164 174 175 175 182 186 182 187 172 168 181 174 164 165 172 176 175
345 342 342 340 338 338 336 334 331 327 323 318 318 319 316 315 304 281 284 280 287 274 243 259 272 271 250 266 282 250 154 85 353 318 277 230 228 265 276 214 173 196 204 221 222 219 227 236 222 220 210 218 242 219 212 221 212 235 225 212 235 237 249 243 242 233 169 153 164 156 143 163 169 171 173 181 186 181 180 170 169 177 166 162 169 175 177 176
343 342 342 340 339 338 336 334 329 327 324 318 322 329 327 331 334 258 246 201 184 253 267 247 204 241 294 246 249 267 21 348 308 279 231 213 210 237 273 265 195 190 199 195 198 200 194 207 220 223 217 207 218 222 234 245 228 240 244 235 234 227 238 237 250 253 173 149 161 160 144 154 163 170 171 177 183 176 171 168 169 170 161 167 173 176 178 179
343 343 343 341 340 338 335 333 327 327 326 320 328 339 349 356 359 61 276 225 229 252 273 267 212 237 289 287 299 341 333 278 238 241 223 192 178 198 247 249 206 193 205 193 185 192 200 218 214 216 227 219 217 218 235 258 260 265 273 279 275 266 254 223 235 248 163 143 164 155 138 151 161 167 170 172 176 173 170 170 172 171 165 170 173 176 177 178
343 344 345 342 341 338 335 332 325 326 323 317 324 330 9 11 345 337 338 281 270 273 273 275 258 264 294 296 315 335 318 257 221 213 187 175 179 175 189 211 205 192 212 226 210 186 199 227 222 217 228 232 235 224 222 238 255 269 276 283 288 282 283 260 243 234 162 145 164 150 142 160 164 167 174 173 172 174 175 175 176 174 170 169 169 176 173 168
344 345 344 343 341 337 334 331 325 322 313 310 312 282 351 11 339 317 331 296 294 293 283 280 268 272 277 265 285 292 273 259 234 191 137 174 187 161 166 188 208 198 196 225 235 190 196 227 233 228 229 230 241 242 232 229 235 254 262 275 288 282 293 290 278 255 176 159 169 157 152 167 167 167 174 177 176 176 175 177 177 171 171 173 172 176 172 164
345 345 344 344 341 336 335 330 321 314 307 300 282 268 351 359 345 335 321 282 292 287 272 266 248 246 249 228 166 224 250 270 257 159 130 187 184 178 198 188 211 218 198 206 220 219 206 213 220 227 234 229 231 238 245 244 233 237 242 252 267 271 286 285 292 297 255 198 173 161 156 162 162 163 176 181 180 176 172 174 176 170 173 179 177 176 175 176
345 345 344 345 341 336 334 327 316 317 318 302 276 289 359 356 356 354 328 267 281 283 266 240 227 239 244 176 110 194 266 278 291 98 137 214 240 218 215 212 220 221 213 210 213 227 240 229 213 212 222 232 236 230 233 246 250 239 230 234 254 265 270 271 293 311 313 309 186 151 141 151 162 166 176 180 181 180 172 169 174 174 176 180 177 178 181 182
345 344 342 344 342 336 332 324 325 337 329 312 295 334 5 359 0 358 332 271 254 266 257 229 205 279 10 38 212 226 288 266 245 176 161 156 313 316 302 263 240 229 231 222 216 223 240 250 240 217 208 218 235 238 226 224 242 256 233 218 226 254 273 283 299 322 337 316 245 138 136 174 177 176 172 171 181 183 173 171 176 176 175 178 178 182 186 185
343 343 340 342 340 337 337 326 337 338 326 333 357 356 356 356 356 351 319 268 262 197 207 200 164 242 341 123 187 221 282 281 58 124 138 57 19 339 324 300 255 243 245 235 234 229 220 234 246 243 220 206 215 234 240 227 221 248 251 228 213 226 261 277 291 309 304 284 295 242 217 179 177 186 177 173 181 179 171 174 179 177 177 179 181 185 185 183
341 340 339 338 336 340 342 304 325 333 321 356 356 346 344 344 342 340 275 246 252 154 162 174 162 191 156 137 207 262 296 297 359 89 100 63 42 44 307 288 280 262 268 273 255 241 224 223 232 247 245 221 209 212 228 234 230 223 247 259 246 224 235 249 261 267 256 280 301 305 295 154 168 191 184 177 179 177 174 177 182 181 181 182 182 183 184 183
338 338 338 334 330 335 326 294 311 320 306 333 340 339 339 327 318 314 260 305 98 149 162 123 116 169 185 177 209 250 289 256 265 116 121 136 150 132 232 265 280 281 289 297 268 263 250 222 212 237 247 242 230 214 207 217 230 242 251 266 274 265 250 245 241 242 256 290 295 304 324 320 195 187 181 176 176 183 185 182 185 185 183 183 183 183 184 184
335 334 336 331 325 333 336 303 291 296 317 327 332 332 324 311 306 289 241 306 134 160 197 116 128 167 211 221 203 229 248 228 224 169 156 170 177 190 234 264 291 301 300 294 278 278 281 283 281 255 246 237 242 247 231 218 218 231 253 271 285 295 294 301 318 279 279 247 261 276 297 305 263 182 172 172 176 189 194 190 187 186 185 183 183 184 184 183
331 331 335 330 322 330 342 305 275 295 328 327 327 323 311 302 295 210 243 246 142 154 188 127 127 173 206 234 201 199 231 249 206 176 203 185 162 190 248 258 274 299 300 297 293 286 290 302 309 284 259 243 238 244 242 250 269 242 232 249 274 291 302 335 49 34 21 268 262 268 263 275 285 195 162 174 192 192 189 192 189 185 186 185 183 184 185 185
330 330 331 324 317 315 316 291 279 321 335 325 326 318 302 295 253 226 276 80 102 160 176 121 112 184 205 255 213 181 210 255 188 157 212 190 163 195 238 239 241 289 299 296 290 284 286 290 292 288 289 275 253 252 231 233 255 264 229 181 228 284 306 348 21 35 34 277 278 278 269 253 262 255 173 181 196 193 186 185 185 184 187 187 185 185 186 186
331 330 323 315 309 290 268 272 311 347 341 324 323 313 294 257 201 240 266 32 46 284 249 92 68 69 33 321 288 154 138 168 306 352 272 254 217 213 209 200 183 209 282 274 260 265 266 265 265 277 285 277 253 265 258 234 235 256 9 87 114 264 273 265 349 95 206 239 272 280 274 248 245 263 235 208 197 190 191 187 180 183 186 185 186 186 186 186
332 331 317 309 295 271 262 285 319 337 325 319 317 295 296 272 237 282 0 26 29 273 359 53 50 27 4 325 349 63 77 154 210 8 359 322 300 277 232 231 215 169 202 298 305 286 253 254 248 250 266 273 237 236 247 245 197 204 111 124 161 208 220 229 183 188 229 229 239 250 255 242 250 268 255 253 227 184 186 194 185 183 185 183 185 185 183 185
335 329 310 301 278 270 271 278 299 295 294 312 317 272 283 250 348 26 27 20 355 355 41 53 345 347 301 277 20 54 22 165 109 30 0 343 307 302 339 10 18 24 17 3 339 323 317 282 239 233 247 178 211 226 243 252 189 188 212 184 191 194 193 226 184 175 209 221 215 222 226 202 208 232 228 250 258 198 179 189 189 184 185 182 180 182 183 183
337 329 306 296 278 274 273 265 275 275 278 302 307 273 302 255 3 21 17 359 348 1 23 349 288 282 254 243 127 67 38 46 58 30 328 290 288 330 50 33 28 31 22 10 351 336 331 308 306 327 320 272 217 214 227 263 263 185 199 216 211 195 174 221 248 234 234 270 235 214 220 194 195 213 207 220 249 234 185 177 181 184 183 179 177 180 183 183
343 346 320 295 283 281 273 257 260 256 262 295 295 273 5 30 16 26 357 344 345 342 340 324 312 312 268 214 118 77 61 21 22 44 274 259 327 28 57 45 27 38 42 19 313 358 348 294 318 336 321 315 325 267 218 213 264 223 194 220 209 194 198 208 270 285 276 290 272 227 241 218 192 222 225 212 220 234 210 172 176 182 174 175 180 181 183 183
344 347 320 293 302 340 63 237 246 242 248 278 288 296 32 35 18 25 3 339 337 334 326 339 25 341 316 67 92 76 86 178 16 72 255 228 29 20 43 60 37 40 43 30 340 23 11 290 302 330 319 325 346 328 272 193 205 253 229 225 184 190 257 210 262 293 281 269 244 259 278 232 184 215 237 220 202 225 226 172 173 178 169 174 183 182 184 182
337 333 305 291 323 23 57 98 217 234 257 263 266 301 55 65 32 20 10 344 337 337 329 5 25 335 351 32 32 23 39 346 5 12 326 35 50 6 19 44 32 30 27 19 19 9 9 309 297 321 336 329 339 334 298 196 189 226 262 295 86 161 256 256 219 238 257 285 263 278 290 250 195 199 214 215 205 219 214 167 168 171 169 177 183 183 185 181
325 314 306 306 345 23 56 104 246 252 267 281 276 328 54 65 53 37 16 352 358 358 353 24 18 349 12 20 4 14 21 2 0 6 2 26 58 19 21 22 11 18 13 5 18 336 4 4 288 312 355 339 325 319 316 165 181 220 259 288 269 170 220 230 235 201 201 262 269 275 288 267 241 214 198 206 210 215 189 159 166 171 170 178 181 181 185 180
308 282 327 340 343 14 98 180 265 269 258 297 347 34 43 34 38 51 31 359 15 26 6 20 10 355 17 19 15 15 9 6 2 346 19 36 57 41 27 20 4 7 1 349 4 346 349 99 273 306 339 338 302 275 1 7 343 266 266 280 271 239 191 203 249 238 194 218 245 265 280 268 259 246 214 212 207 208 180 155 167 175 173 177 180 179 182 183
299 303 349 354 4 76 224 253 238 246 267 29 36 35 36 21 17 41 32 6 26 46 14 22 20 17 28 19 21 22 4 0 358 344 43 48 52 43 25 24 7 355 351 344 9 30 0 344 291 306 321 322 294 299 333 341 323 311 307 296 301 288 224 221 262 253 214 195 202 243 278 262 259 307 325 296 206 200 189 155 165 177 177 176 178 180 182 183
280 335 42 30 18 279 285 286 244 123 50 60 61 41 38 42 26 30 26 14 27 27 9 35 34 26 34 15 12 26 15 357 357 358 32 52 52 43 24 23 9 352 356 1 11 18 351 300 291 297 296 298 295 300 312 312 308 317 308 279 285 290 267 222 233 265 264 203 186 193 282 268 274 341 353 347 322 217 195 156 158 172 179 178 178 182 184 182
304 322 10 16 317 278 273 304 315 79 88 87 79 58 45 46 33 30 30 22 26 14 11 47 38 26 41 25 13 23 13 0 13 7 4 33 49 45 26 14 4 356 6 16 8 359 341 329 335 306 298 301 296 297 301 307 330 332 306 301 314 320 318 283 247 315 322 261 204 167 215 266 285 350 12 360 349 303 192 164 164 170 178 180 179 182 184 181
328 289 271 7 346 319 335 10 351 45 79 86 96 81 64 49 30 28 34 30 24 4 12 47 39 29 38 25 22 30 16 6 10 2 353 355 31 44 28 9 358 355 1 19 17 359 339 0 13 337 324 319 309 308 315 346 2 342 313 336 348 349 351 348 349 14 23 337 337 149 193 257 301 14 21 10 11 21 26 16 101 173 191 185 179 181 184 184
320 261 250 19 30 25 23 17 12 28 31 40 82 83 82 78 50 32 35 40 32 11 22 45 37 33 30 16 24 27 22 50 5 351 358 352 0 34 22 3 354 347 342 354 4 359 334 340 355 352 323 301 299 311 332 347 345 322 315 331 338 350 3 13 9 8 26 349 339 317 218 289 320 10 21 17 20 26 24 20 21 9 352 293 180 180 183 184
313 327 337 359 32 33 18 11 28 40 22 13 28 35 49 74 65 39 28 36 40 31 39 39 22 30 28 15 20 8 2 26 15 2 8 354 350 10 0 353 350 332 332 344 346 334 321 307 295 263 250 265 277 291 305 312 312 309 317 322 326 340 350 359 20 0 330 324 314 306 348 337 330 348 13 24 25 27 26 23 21 12 1 353 262 179 180 180
302 7 14 354 10 20 14 11 29 44 25 17 8 4 24 45 53 45 28 37 55 43 40 36 27 28 15 12 22 4 358 5 5 13 13 351 344 346 343 343 338 324 331 339 325 305 282 277 280 273 264 266 272 281 292 299 300 306 309 308 312 321 325 325 327 320 316 312 299 322 339 341 323 321 344 23 30 32 29 19 15 13 3 357 13 78 155 171
351 8 17 356 314 8 14 15 39 56 40 33 28 11 21 35 41 51 35 34 67 59 36 31 41 27 4 16 28 358 356 3 4 18 11 343 337 333 332 333 332 336 346 337 319 318 295 267 274 276 275 277 278 281 287 290 295 303 301 299 307 318 319 321 323 320 317 305 288 315 321 320 308 310 338 24 30 40 37 22 12 10 6 5 24 48 72 96
6 3 356 347 346 30 25 20 57 76 52 34 28 19 19 23 26 32 16 4 59 71 51 29 39 20 356 12 33 350 358 0 353 7 344 307 302 303 317 323 323 342 352 336 330 343 326 284 286 282 278 280 279 277 281 287 291 294 291 291 299 308 309 310 308 306 304 292 280 293 298 297 306 319 356 30 19 34 43 31 16 11 12 14 26 43 58 60
4 26 348 331 354 17 357 355 34 79 54 29 21 21 15 18 16 4 5 27 40 55 45 29 43 25 353 2 359 339 0 350 331 331 309 299 286 238 236 262 259 308 329 318 335 1 8 308 307 306 293 286 284 277 273 277 280 278 280 287 293 294 292 291 291 296 297 289 287 297 296 296 324 348 17 43 30 31 40 37 25 16 16 21 26 31 42 57
358 3 354 315 330 345 292 353 37 61 57 33 27 32 15 7 16 9 9 20 14 347 351 345 344 57 34 11 346 340 355 339 317 310 304 305 304 260 222 245 246 267 293 262 245 14 44 324 319 320 302 292 296 289 280 280 279 270 266 269 277 282 283 283 287 288 285 292 309 319 303 299 340 4 19 36 38 37 40 38 28 20 18 20 24 22 23 39
2 358 358 336 268 306 325 49 47 47 64 52 20 35 7 345 16 38 26 343 345 355 346 350 12 33 16 353 342 343 334 303 294 306 309 306 304 296 288 287 284 285 286 269 235 180 158 185 326 331 307 297 298 294 296 302 290 270 261 257 261 269 274 277 279 275 273 284 302 299 289 334 2 18 30 34 38 41 43 41 31 19 17 15 17 18 16 19